�v������,��1(���x),�����t���O,��2���x),�����t���O,�������x,�����t���O,�C�ۑ�(���x),�����t���O,�C�ۑ�(���x),�����t���O
3/1/2003 0:00,16.7,0,16.3,0,9.7,0,6,0,55.8,0
3/1/2003 0:15,16.6,0,16.3,0,9.8,0,6.1,0,56.5,0
3/1/2003 0:30,16.6,0,16.3,0,9.2,0,6.2,0,57.3,0
3/1/2003 0:45,16.6,0,16.3,0,9.2,0,6.3,0,58,0
3/1/2003 1:00,16.6,0,16.3,0,9.2,0,6.4,0,58.8,0
3/1/2003 1:15,16.6,0,16.2,0,9.3,0,6.6,0,60,0
3/1/2003 1:30,16.5,0,16.2,0,9.3,0,6.7,0,61.3,0
3/1/2003 1:45,16.5,0,16.2,0,9.4,0,6.9,0,62.5,0
3/1/2003 2:00,16.5,0,16.2,0,9.5,0,7.1,0,63.8,0
3/1/2003 2:15,16.5,0,16.2,0,9.9,0,7.2,0,64.3,0
3/1/2003 2:30,16.5,0,16.2,0,10,0,7.3,0,64.8,0
3/1/2003 2:45,16.5,0,16.2,0,9.5,0,7.4,0,65.3,0
3/1/2003 3:00,16.5,0,16.2,0,9.6,0,7.5,0,65.8,0
3/1/2003 3:15,16.5,0,16.2,0,9.7,0,7.6,0,66.1,0
3/1/2003 3:30,16.5,0,16.2,0,9.7,0,7.6,0,66.3,0
3/1/2003 3:45,16.5,0,16.2,0,9.8,0,7.7,0,66.6,0
3/1/2003 4:00,16.5,0,16.2,0,9.9,0,7.8,0,66.8,0
3/1/2003 4:15,16.5,0,16.2,0,9.9,0,7.2,0,66.1,0
3/1/2003 4:30,16.5,0,16.2,0,10,0,6.6,0,65.3,0
3/1/2003 4:45,16.4,0,16.2,0,10.1,0,6.1,0,64.6,0
3/1/2003 5:00,16.4,0,16.2,0,10.1,0,5.5,0,63.8,0
3/1/2003 5:15,16.4,0,16.1,0,10.2,0,5.3,0,62.5,0
3/1/2003 5:30,16.4,0,16.1,0,10.1,0,5,0,61.3,0
3/1/2003 5:45,16.4,0,16.1,0,10.1,0,4.8,0,60,0
3/1/2003 6:00,16.4,0,16.1,0,10.2,0,4.6,0,58.8,0
3/1/2003 6:15,16.4,0,16.1,0,9.6,0,4.6,0,58.5,0
3/1/2003 6:30,16.4,0,16.1,0,9.7,0,4.7,0,58.3,0
3/1/2003 6:45,16.3,0,16.1,0,9.7,0,4.7,0,58,0
3/1/2003 7:00,16.3,0,17.2,0,9.8,0,4.8,0,57.8,0
3/1/2003 7:15,16.3,0,19.3,0,9.8,0,4.8,0,58,0
3/1/2003 7:30,16.3,0,20.6,0,9.9,0,4.9,0,58.3,0
3/1/2003 7:45,16.3,0,20.8,0,9.9,0,4.9,0,58.5,0
3/1/2003 8:00,16.2,0,20.9,0,10,0,5,0,58.8,0
3/1/2003 8:15,16.2,0,20.8,0,10.1,0,5.1,0,58.3,0
3/1/2003 8:30,16.2,0,20.5,0,10.2,0,5.2,0,57.8,0
3/1/2003 8:45,16.2,0,20.4,0,10.3,0,5.3,0,57.3,0
3/1/2003 9:00,16.2,0,20.3,0,10.3,0,5.4,0,56.8,0
3/1/2003 9:15,16.1,0,19.9,0,11.4,0,5.6,0,56.8,0
3/1/2003 9:30,16.2,0,19.3,0,9.7,0,5.9,0,56.8,0
3/1/2003 9:45,16.2,0,18.8,0,9.7,0,6.1,0,56.8,0
3/1/2003 10:00,16.2,0,18.5,0,9.8,0,6.4,0,56.8,0
3/1/2003 10:15,16.1,0,19.1,0,9.8,0,6.5,0,56.8,0
3/1/2003 10:30,16.1,0,20.8,0,9.9,0,6.5,0,56.8,0
3/1/2003 10:45,16.1,0,21.2,0,10,0,6.6,0,56.8,0
3/1/2003 11:00,16.1,0,21.8,0,10,0,6.7,0,56.8,0
3/1/2003 11:15,16.1,0,22.1,0,10.1,0,6.8,0,58,0
3/1/2003 11:30,16.1,0,22.2,0,10.2,0,6.9,0,59.3,0
3/1/2003 11:45,16.1,0,21.9,0,10.3,0,7.1,0,60.5,0
3/1/2003 12:00,16.1,0,21.7,0,10.4,0,7.2,0,61.8,0
3/1/2003 12:15,16.1,0,21.5,0,10.4,0,7.1,0,62,0
3/1/2003 12:30,16.1,0,21.8,0,10.5,0,7,0,62.3,0
3/1/2003 12:45,16,0,21.8,0,10.6,0,7,0,62.5,0
3/1/2003 13:00,16,0,22,0,10.7,0,6.9,0,62.8,0
3/1/2003 13:15,15.9,0,21.1,0,10.1,0,6.7,0,67.1,0
3/1/2003 13:30,15.9,0,20.3,0,10.3,0,6.5,0,71.3,0
3/1/2003 13:45,15.9,0,19.8,0,10.4,0,6.4,0,75.6,0
3/1/2003 14:00,15.9,0,19.4,0,10.5,0,6.2,0,79.8,0
3/1/2003 14:15,15.9,0,19.2,0,10,0,6.1,0,82.1,0
3/1/2003 14:30,15.9,0,20.4,0,9.8,0,5.9,0,84.3,0
3/1/2003 14:45,15.9,0,21.7,0,9.5,0,5.8,0,86.6,0
3/1/2003 15:00,15.9,0,21.6,0,9.6,0,5.7,0,88.8,0
3/1/2003 15:15,15.9,0,21.9,0,9.7,0,5.8,0,90.1,0
3/1/2003 15:30,15.9,0,21.6,0,9.4,0,5.9,0,91.3,0
3/1/2003 15:45,15.9,0,20.7,0,9.5,0,6.1,0,92.6,0
3/1/2003 16:00,15.8,0,20,0,9.6,0,6.2,0,93.8,0
3/1/2003 16:15,15.8,0,19.6,0,9.7,0,6.2,0,94.6,0
3/1/2003 16:30,15.8,0,19.4,0,9.8,0,6.2,0,95.3,0
3/1/2003 16:45,15.8,0,19.2,0,9.9,0,6.2,0,96.1,0
3/1/2003 17:00,15.8,0,19,0,10,0,6.2,0,96.8,0
3/1/2003 17:15,15.7,0,18.9,0,10.2,0,6.1,0,96.8,0
3/1/2003 17:30,15.7,0,18.8,0,10.4,0,6,0,96.8,0
3/1/2003 17:45,15.7,0,18.6,0,10.6,0,5.9,0,96.8,0
3/1/2003 18:00,15.7,0,18.5,0,10.9,0,5.8,0,96.8,0
3/1/2003 18:15,15.7,0,18.4,0,11.2,0,5.6,0,97.1,0
3/1/2003 18:30,15.7,0,18.3,0,11.5,0,5.3,0,97.3,0
3/1/2003 18:45,15.6,0,18.3,0,13.2,0,5.1,0,97.6,0
3/1/2003 19:00,15.6,0,18.2,0,13.2,0,4.9,0,97.8,0
3/1/2003 19:15,15.6,0,18.1,0,13.2,0,4.9,0,97.8,0
3/1/2003 19:30,15.6,0,18,0,9.9,0,4.9,0,97.8,0
3/1/2003 19:45,15.6,0,17.9,0,9.9,0,5,0,97.8,0
3/1/2003 20:00,15.5,0,17.9,0,10,0,5,0,97.8,0
3/1/2003 20:15,15.5,0,17.8,0,10.1,0,5.1,0,97.8,0
3/1/2003 20:30,15.5,0,17.8,0,10.2,0,5.2,0,97.8,0
3/1/2003 20:45,15.6,0,17.8,0,10.3,0,5.3,0,97.8,0
3/1/2003 21:00,15.6,0,17.7,0,10.4,0,5.4,0,97.8,0
3/1/2003 21:15,15.6,0,17.7,0,10.4,0,5.6,0,97.8,0
3/1/2003 21:30,15.6,0,17.7,0,9.9,0,5.7,0,97.8,0
3/1/2003 21:45,15.6,0,17.7,0,9.9,0,5.9,0,97.8,0
3/1/2003 22:00,15.6,0,17.6,0,10,0,6.1,0,97.8,0
3/1/2003 22:15,15.6,0,17.6,0,10.7,0,6.2,0,98.1,0
3/1/2003 22:30,15.6,0,17.6,0,9.9,0,6.3,0,98.3,0
3/1/2003 22:45,15.8,0,17.6,0,9.6,0,6.5,0,98.6,0
3/1/2003 23:00,15.9,0,17.6,0,9.7,0,6.6,0,98.8,0
3/1/2003 23:15,16,0,17.5,0,9.7,0,6.4,0,98.6,0
3/1/2003 23:30,16,0,17.5,0,9.8,0,6.2,0,98.3,0
3/1/2003 23:45,16.1,0,17.5,0,9.9,0,6,0,98.1,0
3/2/2003 0:00,16.1,0,17.5,0,9.9,0,5.8,0,97.8,0
3/2/2003 0:15,16.1,0,17.4,0,10,0,5.9,0,97.8,0
3/2/2003 0:30,16.2,0,17.4,0,10.1,0,5.9,0,97.8,0
3/2/2003 0:45,16.2,0,17.4,0,10.2,0,6,0,97.8,0
3/2/2003 1:00,16.2,0,17.4,0,10.3,0,6.1,0,97.8,0
3/2/2003 1:15,16.2,0,17.4,0,10.4,0,6.4,0,97.3,0
3/2/2003 1:30,16.2,0,17.4,0,10.5,0,6.7,0,96.8,0
3/2/2003 1:45,16.3,0,17.4,0,10.6,0,7,0,96.3,0
3/2/2003 2:00,16.3,0,17.3,0,10.7,0,7.3,0,95.8,0
3/2/2003 2:15,16.3,0,17.3,0,10.7,0,7.5,0,94.3,0
3/2/2003 2:30,16.3,0,17.3,0,12,0,7.7,0,92.8,0
3/2/2003 2:45,16.3,0,17.3,0,12.1,0,7.9,0,91.3,0
3/2/2003 3:00,16.3,0,17.3,0,12.2,0,8.1,0,89.8,0
3/2/2003 3:15,16.4,0,17.2,0,12.3,0,8.7,0,83.8,0
3/2/2003 3:30,16.4,0,17.2,0,12.4,0,9.3,0,77.8,0
3/2/2003 3:45,16.4,0,17.2,0,12.5,0,9.9,0,71.8,0
3/2/2003 4:00,16.4,0,17.2,0,12.6,0,10.5,0,65.8,0
3/2/2003 4:15,16.4,0,17.2,0,12.6,0,10.6,0,63.3,0
3/2/2003 4:30,16.4,0,17.1,0,12.8,0,10.6,0,60.8,0
3/2/2003 4:45,16.4,0,17.1,0,12.9,0,10.7,0,58.3,0
3/2/2003 5:00,16.4,0,17.1,0,13,0,10.8,0,55.8,0
3/2/2003 5:15,16.4,0,17.1,0,13.2,0,10.7,0,54.5,0
3/2/2003 5:30,16.4,0,17.1,0,13.4,0,10.7,0,53.3,0
3/2/2003 5:45,16.4,0,17,0,13.5,0,10.6,0,52,0
3/2/2003 6:00,16.4,0,17,0,13.7,0,10.6,0,50.8,0
3/2/2003 6:15,16.4,0,17,0,13.9,0,10.6,0,50.8,0
3/2/2003 6:30,16.4,0,17,0,10.8,0,10.5,0,50.8,0
3/2/2003 6:45,16.4,0,17,0,11.1,0,10.5,0,50.8,0
3/2/2003 7:00,16.4,0,17,0,10.1,0,10.5,0,50.8,0
3/2/2003 7:15,16.4,0,17,0,10.1,0,10.5,0,50.3,0
3/2/2003 7:30,16.4,0,16.9,0,10.2,0,10.6,0,49.8,0
3/2/2003 7:45,16.4,0,16.9,0,9.9,0,10.6,0,49.3,0
3/2/2003 8:00,16.3,0,16.9,0,10,0,10.7,0,48.8,0
3/2/2003 8:15,16.3,0,16.9,0,10,0,10.7,0,48.3,0
3/2/2003 8:30,16.3,0,16.9,0,10.1,0,10.8,0,47.8,0
3/2/2003 8:45,16.3,0,16.9,0,10.2,0,10.8,0,47.3,0
3/2/2003 9:00,16.3,0,16.9,0,11.1,0,10.9,0,46.8,0
3/2/2003 9:15,16.4,0,16.9,0,11,0,11.1,0,45.8,0
3/2/2003 9:30,16.4,0,16.9,0,11.1,0,11.2,0,44.8,0
3/2/2003 9:45,16.4,0,16.9,0,11.1,0,11.4,0,43.8,0
3/2/2003 10:00,16.4,0,16.9,0,11.2,0,11.6,0,42.8,0
3/2/2003 10:15,16.4,0,17.7,0,10.6,0,12,0,39.8,0
3/2/2003 10:30,16.4,0,19.8,0,9.9,0,12.4,0,36.8,0
3/2/2003 10:45,16.5,0,21.3,0,10.1,0,12.8,0,33.8,0
3/2/2003 11:00,16.6,0,20.4,0,10.5,0,13.2,0,30.8,0
3/2/2003 11:15,16.6,0,19.6,0,10.6,0,13.4,0,29.5,0
3/2/2003 11:30,16.7,0,19.1,0,10.7,0,13.7,0,28.3,0
3/2/2003 11:45,16.8,0,18.8,0,10.8,0,13.9,0,27,0
3/2/2003 12:00,16.8,0,18.5,0,11.5,0,14.2,0,25.8,0
3/2/2003 12:15,16.8,0,18.3,0,10,0,14,0,25.8,0
3/2/2003 12:30,16.8,0,18.2,0,10.1,0,13.9,0,25.8,0
3/2/2003 12:45,16.8,0,18.1,0,10.2,0,13.7,0,25.8,0
3/2/2003 13:00,16.7,0,18,0,10.2,0,13.6,0,25.8,0
3/2/2003 13:15,16.7,0,17.9,0,10.3,0,13.7,0,26,0
3/2/2003 13:30,16.7,0,17.8,0,10.4,0,13.8,0,26.3,0
3/2/2003 13:45,16.6,0,17.8,0,10.5,0,13.9,0,26.5,0
3/2/2003 14:00,16.6,0,17.7,0,10.6,0,14,0,26.8,0
3/2/2003 14:15,16.6,0,17.7,0,10.7,0,13.9,0,26.8,0
3/2/2003 14:30,16.6,0,17.7,0,10.7,0,13.7,0,26.8,0
3/2/2003 14:45,16.5,0,17.6,0,10.8,0,13.6,0,26.8,0
3/2/2003 15:00,16.5,0,17.6,0,10.9,0,13.5,0,26.8,0
3/2/2003 15:15,16.5,0,17.5,0,11,0,13.4,0,26.8,0
3/2/2003 15:30,16.4,0,17.5,0,11.1,0,13.3,0,26.8,0
3/2/2003 15:45,16.4,0,17.5,0,11.2,0,13.2,0,26.8,0
3/2/2003 16:00,16.4,0,17.4,0,11.3,0,13.1,0,26.8,0
3/2/2003 16:15,16.4,0,17.4,0,11.3,0,12.8,0,27,0
3/2/2003 16:30,16.4,0,17.4,0,11.4,0,12.5,0,27.3,0
3/2/2003 16:45,16.3,0,17.3,0,11.5,0,12.3,0,27.5,0
3/2/2003 17:00,16.3,0,17.3,0,11.6,0,12,0,27.8,0
3/2/2003 17:15,16.3,0,17.3,0,11.7,0,11.7,0,28.3,0
3/2/2003 17:30,16.3,0,17.2,0,11.8,0,11.4,0,28.8,0
3/2/2003 17:45,16.2,0,17.2,0,11.9,0,11.2,0,29.3,0
3/2/2003 18:00,16.2,0,17.2,0,11.9,0,10.9,0,29.8,0
3/2/2003 18:15,16.2,0,17.2,0,12,0,10.8,0,30.3,0
3/2/2003 18:30,16.2,0,17.2,0,10.8,0,10.7,0,30.8,0
3/2/2003 18:45,16.2,0,17.3,0,10.1,0,10.6,0,31.3,0
3/2/2003 19:00,16.2,0,17.4,0,10.1,0,10.5,0,31.8,0
3/2/2003 19:15,16.2,0,17.5,0,10.2,0,10.3,0,32.3,0
3/2/2003 19:30,16.1,0,17.5,0,10.3,0,10.1,0,32.8,0
3/2/2003 19:45,16.1,0,17.4,0,10.3,0,9.9,0,33.3,0
3/2/2003 20:00,16.1,0,17.4,0,10.4,0,9.7,0,33.8,0
3/2/2003 20:15,16.1,0,17.3,0,10.5,0,9.5,0,36,0
3/2/2003 20:30,16.1,0,17.3,0,11.3,0,9.4,0,38.3,0
3/2/2003 20:45,16.1,0,17.2,0,11.3,0,9.2,0,40.5,0
3/2/2003 21:00,16.1,0,17.2,0,11.4,0,9.1,0,42.8,0
3/2/2003 21:15,16.1,0,17.2,0,9.9,0,9,0,41.8,0
3/2/2003 21:30,16.1,0,17.1,0,10,0,8.9,0,40.8,0
3/2/2003 21:45,16.1,0,17.1,0,10.4,0,8.9,0,39.8,0
3/2/2003 22:00,16.1,0,17.1,0,10.4,0,8.8,0,38.8,0
3/2/2003 22:15,16.1,0,17.1,0,10.5,0,8.7,0,42,0
3/2/2003 22:30,16.2,0,17.1,0,9.4,0,8.6,0,45.3,0
3/2/2003 22:45,16.3,0,17.1,0,9.6,0,8.5,0,48.5,0
3/2/2003 23:00,16.4,0,17.1,0,9.7,0,8.4,0,51.8,0
3/2/2003 23:15,16.4,0,17.1,0,9.7,0,8,0,54,0
3/2/2003 23:30,16.5,0,17.1,0,9.8,0,7.6,0,56.3,0
3/2/2003 23:45,16.5,0,17.1,0,10.6,0,7.2,0,58.5,0
3/3/2003 0:00,16.5,0,17.1,0,10.7,0,6.8,0,60.8,0
3/3/2003 0:15,16.6,0,17,0,10.8,0,6.9,0,58.8,0
3/3/2003 0:30,16.6,0,17,0,10.9,0,7,0,56.8,0
3/3/2003 0:45,16.6,0,17,0,11,0,7.1,0,54.8,0
3/3/2003 1:00,16.6,0,17,0,11.1,0,7.2,0,52.8,0
3/3/2003 1:15,16.6,0,17,0,11.2,0,7.3,0,52,0
3/3/2003 1:30,16.6,0,17,0,11.3,0,7.5,0,51.3,0
3/3/2003 1:45,16.7,0,17,0,11.4,0,7.6,0,50.5,0
3/3/2003 2:00,16.7,0,17,0,11.5,0,7.8,0,49.8,0
3/3/2003 2:15,16.7,0,17,0,11.6,0,7.6,0,49.3,0
3/3/2003 2:30,16.7,0,17,0,11.8,0,7.4,0,48.8,0
3/3/2003 2:45,16.7,0,17,0,11.9,0,7.3,0,48.3,0
3/3/2003 3:00,16.7,0,16.9,0,12.1,0,7.1,0,47.8,0
3/3/2003 3:15,16.7,0,16.9,0,12.2,0,6.7,0,49.8,0
3/3/2003 3:30,16.8,0,16.9,0,12.4,0,6.4,0,51.8,0
3/3/2003 3:45,16.8,0,16.9,0,12.6,0,6,0,53.8,0
3/3/2003 4:00,16.8,0,16.9,0,12.8,0,5.7,0,55.8,0
3/3/2003 4:15,16.8,0,16.9,0,12.9,0,5.6,0,56.3,0
3/3/2003 4:30,16.8,0,16.9,0,13.1,0,5.5,0,56.8,0
3/3/2003 4:45,16.8,0,16.8,0,13.3,0,5.4,0,57.3,0
3/3/2003 5:00,16.8,0,16.8,0,13.5,0,5.3,0,57.8,0
3/3/2003 5:15,16.8,0,16.8,0,13.6,0,5.2,0,57.8,0
3/3/2003 5:30,16.8,0,16.8,0,13.8,0,5.1,0,57.8,0
3/3/2003 5:45,16.8,0,16.8,0,14,0,5,0,57.8,0
3/3/2003 6:00,16.8,0,16.8,0,14.1,0,4.9,0,57.8,0
3/3/2003 6:15,16.8,0,16.7,0,14.3,0,4.8,0,61.8,0
3/3/2003 6:30,16.8,0,16.7,0,14.4,0,4.7,0,65.8,0
3/3/2003 6:45,16.8,0,16.7,0,14.6,0,4.7,0,69.8,0
3/3/2003 7:00,16.7,0,16.7,0,11.4,0,4.6,0,73.8,0
3/3/2003 7:15,16.7,0,16.7,0,9.8,0,4.9,0,72.8,0
3/3/2003 7:30,16.7,0,16.7,0,9.9,0,5.2,0,71.8,0
3/3/2003 7:45,16.7,0,16.7,0,9.9,0,5.6,0,70.8,0
3/3/2003 8:00,16.6,0,16.7,0,10,0,5.9,0,69.8,0
3/3/2003 8:15,16.6,0,16.7,0,10.1,0,6.7,0,67.8,0
3/3/2003 8:30,16.6,0,16.7,0,10.2,0,7.4,0,65.8,0
3/3/2003 8:45,16.6,0,16.7,0,10.3,0,8.2,0,63.8,0
3/3/2003 9:00,16.6,0,16.7,0,10.4,0,9,0,61.8,0
3/3/2003 9:15,16.6,0,16.7,0,10.5,0,9.5,0,59.3,0
3/3/2003 9:30,16.6,0,16.7,0,10.6,0,10.1,0,56.8,0
3/3/2003 9:45,16.5,0,16.7,0,10.7,0,10.6,0,54.3,0
3/3/2003 10:00,16.6,0,16.7,0,10.3,0,11.2,0,51.8,0
3/3/2003 10:15,16.6,0,16.7,0,10.3,0,11.7,0,54,0
3/3/2003 10:30,16.6,0,16.8,0,10.4,0,12.3,0,56.3,0
3/3/2003 10:45,16.6,0,16.8,0,10.4,0,12.8,0,58.5,0
3/3/2003 11:00,16.6,0,16.8,0,10.5,0,13.4,0,60.8,0
3/3/2003 11:15,16.6,0,16.8,0,10.6,0,13.7,0,64.3,0
3/3/2003 11:30,16.6,0,16.8,0,10.5,0,14.1,0,67.8,0
3/3/2003 11:45,16.7,0,16.9,0,10.6,0,14.4,0,71.3,0
3/3/2003 12:00,16.7,0,17,0,10.6,0,14.8,0,74.8,0
3/3/2003 12:15,16.7,0,17.1,0,10.7,0,14.9,0,75.1,0
3/3/2003 12:30,16.7,0,17.2,0,10.8,0,14.9,0,75.3,0
3/3/2003 12:45,16.7,0,17.2,0,10.9,0,15,0,75.6,0
3/3/2003 13:00,16.7,0,17.3,0,10.9,0,15.1,0,75.8,0
3/3/2003 13:15,16.7,0,17.3,0,11,0,14.9,0,78.8,0
3/3/2003 13:30,16.7,0,17.3,0,11.4,0,14.7,0,81.8,0
3/3/2003 13:45,16.7,0,17.2,0,11.4,0,14.5,0,84.8,0
3/3/2003 14:00,16.7,0,17.2,0,11.5,0,14.3,0,87.8,0
3/3/2003 14:15,16.7,0,17.2,0,11.6,0,14.3,0,87.8,0
3/3/2003 14:30,16.8,0,17.1,0,11.6,0,14.4,0,87.8,0
3/3/2003 14:45,16.8,0,17.1,0,11.3,0,14.4,0,87.8,0
3/3/2003 15:00,16.9,0,17.1,0,11.3,0,14.5,0,87.8,0
3/3/2003 15:15,16.9,0,17.1,0,11.4,0,15,0,84.6,0
3/3/2003 15:30,16.9,0,17,0,11.4,0,15.5,0,81.3,0
3/3/2003 15:45,16.9,0,17,0,11.1,0,16.1,0,78.1,0
3/3/2003 16:00,16.9,0,17,0,11.1,0,16.6,0,74.8,0
3/3/2003 16:15,16.9,0,17,0,10.6,0,16.5,0,76.6,0
3/3/2003 16:30,16.9,0,17,0,10.6,0,16.4,0,78.3,0
3/3/2003 16:45,16.9,0,17,0,10.7,0,16.3,0,80.1,0
3/3/2003 17:00,16.9,0,17,0,10.8,0,16.2,0,81.8,0
3/3/2003 17:15,16.9,0,17,0,10.9,0,15,0,84.1,0
3/3/2003 17:30,16.9,0,17,0,10.2,0,13.9,0,86.3,0
3/3/2003 17:45,16.8,0,17,0,10.2,0,12.7,0,88.6,0
3/3/2003 18:00,16.8,0,16.9,0,10.3,0,11.6,0,90.8,0
3/3/2003 18:15,16.8,0,17,0,10.4,0,10.8,0,91.6,0
3/3/2003 18:30,16.8,0,17.1,0,10.5,0,9.9,0,92.3,0
3/3/2003 18:45,16.8,0,17,0,10.5,0,9.1,0,93.1,0
3/3/2003 19:00,16.7,0,17,0,10.6,0,8.3,0,93.8,0
3/3/2003 19:15,16.7,0,17,0,10.7,0,8.4,0,93.3,0
3/3/2003 19:30,16.7,0,16.9,0,10.8,0,8.5,0,92.8,0
3/3/2003 19:45,16.7,0,16.9,0,10.4,0,8.6,0,92.3,0
3/3/2003 20:00,16.7,0,16.9,0,10.5,0,8.7,0,91.8,0
3/3/2003 20:15,16.7,0,16.9,0,10.5,0,8.8,0,90.6,0
3/3/2003 20:30,16.7,0,16.9,0,10.6,0,8.8,0,89.3,0
3/3/2003 20:45,16.7,0,16.9,0,10.7,0,8.9,0,88.1,0
3/3/2003 21:00,16.7,0,16.9,0,10.7,0,9,0,86.8,0
3/3/2003 21:15,16.7,0,16.9,0,10.8,0,9,0,86.6,0
3/3/2003 21:30,16.7,0,16.9,0,10.8,0,9,0,86.3,0
3/3/2003 21:45,16.9,0,16.9,0,10.9,0,9,0,86.1,0
3/3/2003 22:00,17.1,0,17,0,11,0,9,0,85.8,0
3/3/2003 22:15,17.2,0,17,0,11,0,9,0,82.6,0
3/3/2003 22:30,17.3,0,17,0,11.1,0,9,0,79.3,0
3/3/2003 22:45,17.4,0,16.9,0,9.7,0,9,0,76.1,0
3/3/2003 23:00,17.4,0,17,0,9.8,0,9,0,72.8,0
3/3/2003 23:15,17.5,0,17,0,9.8,0,8.8,0,67.3,0
3/3/2003 23:30,17.5,0,17,0,9.9,0,8.5,0,61.8,0
3/3/2003 23:45,17.5,0,17,0,10,0,8.3,0,56.3,0
3/4/2003 0:00,17.5,0,16.9,0,10,0,8.1,0,50.8,0
3/4/2003 0:15,17.5,0,16.9,0,10.1,0,8,0,48.8,0
3/4/2003 0:30,17.5,0,16.9,0,10.2,0,7.9,0,46.8,0
3/4/2003 0:45,17.5,0,16.9,0,10.3,0,7.9,0,44.8,0
3/4/2003 1:00,17.4,0,16.9,0,10.4,0,7.8,0,42.8,0
3/4/2003 1:15,17.4,0,16.9,0,10.5,0,7.6,0,42.5,0
3/4/2003 1:30,17.4,0,16.9,0,9.5,0,7.3,0,42.3,0
3/4/2003 1:45,17.4,0,16.9,0,9.5,0,7.1,0,42,0
3/4/2003 2:00,17.4,0,16.9,0,9.6,0,6.9,0,41.8,0
3/4/2003 2:15,17.4,0,16.9,0,9.7,0,6.6,0,41.5,0
3/4/2003 2:30,17.3,0,16.8,0,9.7,0,6.4,0,41.3,0
3/4/2003 2:45,17.3,0,16.8,0,9.8,0,6.1,0,41,0
3/4/2003 3:00,17.3,0,16.8,0,9.9,0,5.9,0,40.8,0
3/4/2003 3:15,17.3,0,16.8,0,10,0,5.7,0,39.8,0
3/4/2003 3:30,17.3,0,16.8,0,10.1,0,5.5,0,38.8,0
3/4/2003 3:45,17.3,0,16.8,0,10.2,0,5.3,0,37.8,0
3/4/2003 4:00,17.2,0,16.8,0,10.3,0,5.1,0,36.8,0
3/4/2003 4:15,17.2,0,16.7,0,10.4,0,5,0,35.8,0
3/4/2003 4:30,17.2,0,16.7,0,10.5,0,4.9,0,34.8,0
3/4/2003 4:45,17.2,0,16.7,0,10.6,0,4.8,0,33.8,0
3/4/2003 5:00,17.2,0,16.7,0,10.7,0,4.7,0,32.8,0
3/4/2003 5:15,17.2,0,16.7,0,10.8,0,4.5,0,33.5,0
3/4/2003 5:30,17.1,0,16.7,0,10.9,0,4.4,0,34.3,0
3/4/2003 5:45,17.1,0,16.7,0,11,0,4.2,0,35,0
3/4/2003 6:00,17.1,0,16.7,0,11.1,0,4.1,0,35.8,0
3/4/2003 6:15,17.1,0,16.6,0,11.2,0,4,0,35.5,0
3/4/2003 6:30,17.1,0,16.6,0,11.3,0,3.9,0,35.3,0
3/4/2003 6:45,17,0,16.6,0,11.4,0,3.9,0,35,0
3/4/2003 7:00,17,0,16.6,0,11.5,0,3.8,0,34.8,0
3/4/2003 7:15,17,0,16.6,0,9.4,0,3.9,0,33.8,0
3/4/2003 7:30,17,0,16.6,0,9.5,0,4,0,32.8,0
3/4/2003 7:45,17,0,16.5,0,9.5,0,4.1,0,31.8,0
3/4/2003 8:00,17,0,16.5,0,9.6,0,4.2,0,30.8,0
3/4/2003 8:15,17.2,0,16.5,0,9.6,0,4.4,0,30,0
3/4/2003 8:30,17.3,0,16.6,0,9.7,0,4.5,0,29.3,0
3/4/2003 8:45,17.4,0,16.6,0,9.8,0,4.7,0,28.5,0
3/4/2003 9:00,17.5,0,16.6,0,11,0,4.9,0,27.8,0
3/4/2003 9:15,17.6,0,16.6,0,9.9,0,5,0,27.3,0
3/4/2003 9:30,17.7,0,16.6,0,10,0,5.2,0,26.8,0
3/4/2003 9:45,17.8,0,16.6,0,10,0,5.3,0,26.3,0
3/4/2003 10:00,17.8,0,16.7,0,10.1,0,5.5,0,25.8,0
3/4/2003 10:15,17.8,0,16.7,0,10.2,0,5.7,0,25.5,0
3/4/2003 10:30,17.8,0,16.7,0,10.3,0,5.9,0,25.3,0
3/4/2003 10:45,17.8,0,16.7,0,10.4,0,6.1,0,25,0
3/4/2003 11:00,17.8,0,16.7,0,10.5,0,6.3,0,24.8,0
3/4/2003 11:15,17.8,0,16.7,0,10.6,0,6.4,0,24,0
3/4/2003 11:30,17.8,0,16.7,0,10.7,0,6.5,0,23.3,0
3/4/2003 11:45,17.7,0,16.7,0,10.8,0,6.7,0,22.5,0
3/4/2003 12:00,17.7,0,16.7,0,9.9,0,6.8,0,21.8,0
3/4/2003 12:15,17.6,0,16.7,0,10,0,6.8,0,21.3,0
3/4/2003 12:30,17.6,0,16.7,0,10.1,0,6.9,0,20.8,0
3/4/2003 12:45,17.5,0,16.7,0,10.1,0,6.9,0,20.3,0
3/4/2003 13:00,17.4,0,16.7,0,10.2,0,7,0,19.8,0
3/4/2003 13:15,17.4,0,16.6,0,10.3,0,7,0,20,0
3/4/2003 13:30,17.3,0,16.6,0,10.4,0,7.1,0,20.3,0
3/4/2003 13:45,17.3,0,16.6,0,10.5,0,7.1,0,20.5,0
3/4/2003 14:00,17.3,0,16.6,0,10.6,0,7.2,0,20.8,0
3/4/2003 14:15,17.2,0,16.6,0,10.6,0,7.1,0,20.8,0
3/4/2003 14:30,17.2,0,16.6,0,10.7,0,7,0,20.8,0
3/4/2003 14:45,17.2,0,16.5,0,10.8,0,7,0,20.8,0
3/4/2003 15:00,17.1,0,16.5,0,10.9,0,6.9,0,20.8,0
3/4/2003 15:15,17.1,0,16.5,0,11,0,6.7,0,21.3,0
3/4/2003 15:30,17.1,0,16.5,0,10.8,0,6.5,0,21.8,0
3/4/2003 15:45,17,0,16.4,0,10.8,0,6.3,0,22.3,0
3/4/2003 16:00,17,0,16.4,0,10.9,0,6.1,0,22.8,0
3/4/2003 16:15,17,0,16.4,0,10.9,0,5.8,0,23.3,0
3/4/2003 16:30,17,0,16.4,0,11,0,5.4,0,23.8,0
3/4/2003 16:45,16.9,0,16.3,0,11.1,0,5.1,0,24.3,0
3/4/2003 17:00,16.9,0,16.3,0,10.6,0,4.8,0,24.8,0
3/4/2003 17:15,16.9,0,16.3,0,10.6,0,4.6,0,25.8,0
3/4/2003 17:30,16.9,0,16.4,0,10,0,4.4,0,26.8,0
3/4/2003 17:45,16.8,0,18.7,0,10.1,0,4.2,0,27.8,0
3/4/2003 18:00,16.8,0,20.1,0,10.1,0,4,0,28.8,0
3/4/2003 18:15,16.8,0,20.7,0,10.2,0,3.9,0,29.5,0
3/4/2003 18:30,16.8,0,20.8,0,10.3,0,3.7,0,30.3,0
3/4/2003 18:45,16.7,0,20.6,0,10.4,0,3.6,0,31,0
3/4/2003 19:00,16.7,0,20.6,0,10.4,0,3.5,0,31.8,0
3/4/2003 19:15,16.7,0,20.2,0,10.5,0,3.3,0,32.8,0
3/4/2003 19:30,16.6,0,19.4,0,10.6,0,3.2,0,33.8,0
3/4/2003 19:45,16.5,0,18.8,0,10.7,0,3,0,34.8,0
3/4/2003 20:00,16.5,0,18.4,0,10.8,0,2.9,0,35.8,0
3/4/2003 20:15,16.4,0,18.1,0,10.9,0,2.8,0,35.8,0
3/4/2003 20:30,16.3,0,17.8,0,11,0,2.8,0,35.8,0
3/4/2003 20:45,16.3,0,17.6,0,11,0,2.7,0,35.8,0
3/4/2003 21:00,16.3,0,17.4,0,11.1,0,2.7,0,35.8,0
3/4/2003 21:15,16.3,0,17.3,0,11.2,0,2.6,0,36.5,0
3/4/2003 21:30,16.3,0,17.2,0,10.3,0,2.5,0,37.3,0
3/4/2003 21:45,16.3,0,17.2,0,10.3,0,2.5,0,38,0
3/4/2003 22:00,16.3,0,17.1,0,10.4,0,2.4,0,38.8,0
3/4/2003 22:15,16.5,0,17.1,0,10.5,0,2.3,0,40.3,0
3/4/2003 22:30,16.7,0,17,0,9.6,0,2.1,0,41.8,0
3/4/2003 22:45,16.7,0,16.9,0,9.8,0,2,0,43.3,0
3/4/2003 23:00,16.7,0,16.9,0,9.9,0,1.9,0,44.8,0
3/4/2003 23:15,16.7,0,16.8,0,9.9,0,1.9,0,44.8,0
3/4/2003 23:30,16.7,0,17.3,0,10,0,1.8,0,44.8,0
3/4/2003 23:45,16.7,0,19.3,0,10.1,0,1.8,0,44.8,0
3/5/2003 0:00,16.6,0,19.1,0,9.9,0,1.8,0,44.8,0
3/5/2003 0:15,16.6,0,18.5,0,10,0,1.7,0,45.5,0
3/5/2003 0:30,16.6,0,18.1,0,10,0,1.5,0,46.3,0
3/5/2003 0:45,16.6,0,17.8,0,9.8,0,1.4,0,47,0
3/5/2003 1:00,16.6,0,17.6,0,9.9,0,1.3,0,47.8,0
3/5/2003 1:15,16.6,0,17.5,0,9.8,0,1.2,0,48.8,0
3/5/2003 1:30,16.6,0,17.4,0,9.8,0,1.1,0,49.8,0
3/5/2003 1:45,16.6,0,17.3,0,9.9,0,1,0,50.8,0
3/5/2003 2:00,16.6,0,17.3,0,9.9,0,0.9,0,51.8,0
3/5/2003 2:15,16.6,0,17.2,0,10,0,0.9,0,51,0
3/5/2003 2:30,16.6,0,17.2,0,10.1,0,1,0,50.3,0
3/5/2003 2:45,16.6,0,17.1,0,10.2,0,1,0,49.5,0
3/5/2003 3:00,16.6,0,17.1,0,10.3,0,1.1,0,48.8,0
3/5/2003 3:15,16.6,0,17,0,10.4,0,1,0,50,0
3/5/2003 3:30,16.5,0,17,0,10.4,0,0.8,0,51.3,0
3/5/2003 3:45,16.5,0,16.9,0,10.5,0,0.7,0,52.5,0
3/5/2003 4:00,16.5,0,16.9,0,10.6,0,0.6,0,53.8,0
3/5/2003 4:15,16.5,0,16.9,0,10.7,0,0.6,0,53.5,0
3/5/2003 4:30,16.5,0,16.8,0,10.8,0,0.6,0,53.3,0
3/5/2003 4:45,16.5,0,16.8,0,10.9,0,0.6,0,53,0
3/5/2003 5:00,16.5,0,16.8,0,11,0,0.6,0,52.8,0
3/5/2003 5:15,16.5,0,16.8,0,11.1,0,0.5,0,53.3,0
3/5/2003 5:30,16.5,0,16.7,0,11.2,0,0.5,0,53.8,0
3/5/2003 5:45,16.4,0,16.7,0,11.2,0,0.4,0,54.3,0
3/5/2003 6:00,16.4,0,16.7,0,11.3,0,0.4,0,54.8,0
3/5/2003 6:15,16.4,0,16.6,0,11.4,0,0.4,0,55.3,0
3/5/2003 6:30,16.4,0,16.6,0,11.5,0,0.4,0,55.8,0
3/5/2003 6:45,16.4,0,16.6,0,11.6,0,0.4,0,56.3,0
3/5/2003 7:00,16.4,0,16.6,0,9.5,0,0.4,0,56.8,0
3/5/2003 7:15,16.4,0,16.5,0,9.4,0,0.7,0,55.5,0
3/5/2003 7:30,16.5,0,16.5,0,9.4,0,1,0,54.3,0
3/5/2003 7:45,16.5,0,16.5,0,9.5,0,1.3,0,53,0
3/5/2003 8:00,16.5,0,16.4,0,9.5,0,1.6,0,51.8,0
3/5/2003 8:15,16.5,0,16.4,0,9.6,0,1.9,0,49.5,0
3/5/2003 8:30,16.5,0,16.4,0,9.7,0,2.1,0,47.3,0
3/5/2003 8:45,16.5,0,16.4,0,9.8,0,2.4,0,45,0
3/5/2003 9:00,16.5,0,16.4,0,9.8,0,2.7,0,42.8,0
3/5/2003 9:15,16.1,0,16.4,0,9.9,0,3.2,0,41.3,0
3/5/2003 9:30,15.5,0,16.3,0,10,0,3.7,0,39.8,0
3/5/2003 9:45,15.2,0,16.3,0,10,0,4.3,0,38.3,0
3/5/2003 10:00,15.1,0,16.2,0,10.1,0,4.8,0,36.8,0
3/5/2003 10:15,15.3,0,16.5,0,10.2,0,5.3,0,36.3,0
3/5/2003 10:30,15.5,0,18.7,0,10.3,0,5.7,0,35.8,0
3/5/2003 10:45,15.6,0,20.1,0,10.4,0,6.2,0,35.3,0
3/5/2003 11:00,15.7,0,20.7,0,10.5,0,6.7,0,34.8,0
3/5/2003 11:15,15.8,0,21.2,0,10.5,0,6.8,0,34,0
3/5/2003 11:30,15.8,0,20.1,0,10.6,0,6.9,0,33.3,0
3/5/2003 11:45,15.9,0,19.2,0,10.7,0,7,0,32.5,0
3/5/2003 12:00,15.9,0,18.6,0,10.8,0,7.1,0,31.8,0
3/5/2003 12:15,15.9,0,18.2,0,10.9,0,7,0,31.5,0
3/5/2003 12:30,15.9,0,18,0,11,0,6.9,0,31.3,0
3/5/2003 12:45,15.9,0,17.8,0,11.1,0,6.8,0,31,0
3/5/2003 13:00,15.9,0,17.7,0,11.2,0,6.7,0,30.8,0
3/5/2003 13:15,15.9,0,17.5,0,11.2,0,6.7,0,30.5,0
3/5/2003 13:30,16,0,17.4,0,10.4,0,6.6,0,30.3,0
3/5/2003 13:45,16,0,17.3,0,10.5,0,6.6,0,30,0
3/5/2003 14:00,16,0,17.3,0,10.5,0,6.6,0,29.8,0
3/5/2003 14:15,16,0,17.2,0,10.6,0,6.9,0,29.8,0
3/5/2003 14:30,16,0,17.1,0,10.7,0,7.3,0,29.8,0
3/5/2003 14:45,16,0,17.1,0,10.7,0,7.6,0,29.8,0
3/5/2003 15:00,16,0,17,0,10.8,0,8,0,29.8,0
3/5/2003 15:15,16,0,16.9,0,10.9,0,8,0,29.3,0
3/5/2003 15:30,16,0,16.9,0,11,0,8,0,28.8,0
3/5/2003 15:45,16,0,16.9,0,11,0,8.1,0,28.3,0
3/5/2003 16:00,16,0,16.9,0,9.6,0,8.1,0,27.8,0
3/5/2003 16:15,16,0,17,0,9.7,0,7.8,0,30.8,0
3/5/2003 16:30,15.9,0,17,0,9.7,0,7.6,0,33.8,0
3/5/2003 16:45,15.9,0,16.9,0,9.8,0,7.3,0,36.8,0
3/5/2003 17:00,15.9,0,16.8,0,9.8,0,7.1,0,39.8,0
3/5/2003 17:15,15.9,0,16.8,0,9.9,0,6.8,0,41.3,0
3/5/2003 17:30,15.9,0,16.7,0,10,0,6.4,0,42.8,0
3/5/2003 17:45,15.8,0,16.7,0,10.1,0,6.1,0,44.3,0
3/5/2003 18:00,15.8,0,16.7,0,10.5,0,5.8,0,45.8,0
3/5/2003 18:15,15.8,0,16.6,0,10.6,0,5.7,0,46.3,0
3/5/2003 18:30,15.8,0,16.6,0,10.6,0,5.6,0,46.8,0
3/5/2003 18:45,15.8,0,16.6,0,10.7,0,5.5,0,47.3,0
3/5/2003 19:00,15.8,0,16.6,0,10.7,0,5.4,0,47.8,0
3/5/2003 19:15,15.7,0,16.5,0,10.8,0,5.4,0,48.3,0
3/5/2003 19:30,15.7,0,16.5,0,10.9,0,5.5,0,48.8,0
3/5/2003 19:45,15.6,0,16.4,0,11,0,5.5,0,49.3,0
3/5/2003 20:00,15.7,0,16.4,0,11,0,5.6,0,49.8,0
3/5/2003 20:15,15.7,0,16.4,0,11.1,0,5.5,0,50.3,0
3/5/2003 20:30,15.7,0,16.4,0,10.3,0,5.4,0,50.8,0
3/5/2003 20:45,15.7,0,16.4,0,10.3,0,5.4,0,51.3,0
3/5/2003 21:00,15.7,0,16.4,0,10.4,0,5.3,0,51.8,0
3/5/2003 21:15,15.7,0,16.4,0,10.5,0,5.2,0,52.5,0
3/5/2003 21:30,15.7,0,16.4,0,10.5,0,5.1,0,53.3,0
3/5/2003 21:45,15.7,0,16.4,0,10.6,0,5.1,0,54,0
3/5/2003 22:00,15.7,0,16.4,0,10.7,0,5,0,54.8,0
3/5/2003 22:15,15.7,0,16.4,0,10.8,0,5.1,0,55.3,0
3/5/2003 22:30,15.7,0,16.4,0,10.8,0,5.2,0,55.8,0
3/5/2003 22:45,15.8,0,16.3,0,9.2,0,5.4,0,56.3,0
3/5/2003 23:00,15.9,0,16.3,0,9.4,0,5.5,0,56.8,0
3/5/2003 23:15,16.1,0,16.3,0,9.4,0,5.3,0,57.3,0
3/5/2003 23:30,16.1,0,16.3,0,9.5,0,5.1,0,57.8,0
3/5/2003 23:45,16.2,0,16.3,0,9.5,0,5,0,58.3,0
3/6/2003 0:00,16.2,0,16.3,0,9.6,0,4.8,0,58.8,0
3/6/2003 0:15,16.2,0,16.3,0,9.7,0,4.7,0,57.8,0
3/6/2003 0:30,16.2,0,16.3,0,9.8,0,4.5,0,56.8,0
3/6/2003 0:45,16.2,0,16.3,0,11.4,0,4.4,0,55.8,0
3/6/2003 1:00,16.3,0,16.2,0,10.2,0,4.3,0,54.8,0
3/6/2003 1:15,16.3,0,16.2,0,10.4,0,4,0,55.3,0
3/6/2003 1:30,16.3,0,16.2,0,10.5,0,3.8,0,55.8,0
3/6/2003 1:45,16.3,0,16.2,0,10.9,0,3.5,0,56.3,0
3/6/2003 2:00,16.3,0,16.2,0,11,0,3.3,0,56.8,0
3/6/2003 2:15,16.3,0,16.2,0,11,0,3.1,0,58.5,0
3/6/2003 2:30,16.4,0,16.2,0,11.1,0,2.9,0,60.3,0